This demonstration page uses our WeatherBlox Daily Observations layout. Learn more.

Left ArrowRight Arrow

Hourly Observations for February 3, 2016

Temp ( °F °C ) Dew Point ( °F °C ) Humidity (%) Winds ( mph kmh ) Pressure ( in mb ) Visibility ( mi km ) Precip ( " mm )
12:15 am 00:15 Clear 22 -5.5 17 -8.1 82 82 NNW 20 31 30.06 1018 N/A N/A
12:35 am 00:35 undefined 22 -5.8 17 -8.5 81 81 NNW 16 26 30.06 1018 N/A N/A
12:55 am 00:55 Clear 22 -5.6 17 -8.4 81 81 NNW 20 31 30.06 1018 N/A N/A
1:15 am 01:15 Clear 22 -5.6 17 -8.2 82 82 NNW 22 35 30.06 1018 N/A N/A
1:30 am 01:30 Clear 22 -5.6 17 -8.4 81 81 NNW 21 33 30.09 1019 N/A N/A
1:55 am 01:55 Clear 21 -6 16 -8.8 81 81 NNW 22 35 30.09 1019 N/A N/A
2:15 am 02:15 Partly Cloudy 22 -5.6 17 -8.5 80 80 N 25 41 30.12 1020 N/A N/A
2:35 am 02:35 Cloudy 22 -5.4 17 -8.5 79 79 N 17 28 30.12 1020 N/A N/A
2:55 am 02:55 Cloudy 23 -5.1 17 -8.4 78 78 NNW 17 28 30.12 1020 N/A N/A
3:15 am 03:15 Cloudy 23 -4.8 17 -8.2 77 77 N 16 26 30.12 1020 N/A N/A
3:35 am 03:35 Cloudy 23 -4.8 17 -8.1 78 78 NNW 10 17 30.15 1021 N/A N/A
3:55 am 03:55 Cloudy 23 -5 18 -8 80 80 NNW 9 15 30.15 1021 N/A N/A
4:15 am 04:15 Cloudy 23 -4.8 18 -7.8 80 80 NNW 9 15 30.15 1021 N/A N/A
4:35 am 04:35 Cloudy 23 -4.8 17 -8.5 76 76 NNW 14 22 30.15 1021 N/A N/A
4:55 am 04:55 Mostly Cloudy 23 -5 17 -8.5 77 77 NW 10 17 30.15 1021 N/A N/A
5:15 am 05:15 Partly Cloudy 23 -5.1 15 -9.5 72 72 NNW 15 24 30.15 1021 N/A N/A
5:35 am 05:35 Clear 21 -6.3 14 -10.2 74 74 NNW 10 17 30.15 1021 N/A N/A
5:55 am 05:55 Clear 19 -7.4 12 -10.9 76 76 NW 8 13 30.18 1022 N/A N/A
6:15 am 06:15 Clear 15 -9.6 10 -12.4 80 80 NW 7 11 30.24 1024 N/A N/A
6:35 am 06:35 undefined 14 -9.8 10 -12.1 83 83 NW 7 11 30.24 1024 N/A N/A
6:55 am 06:55 undefined 14 -9.8 10 -12 84 84 WNW 3 6 30.24 1024 N/A N/A
7:15 am 07:15 undefined 14 -9.8 11 -11.8 86 86 WNW 5 7 30.24 1024 N/A N/A
7:35 am 07:35 Cloudy 15 -9.5 11 -11.8 84 84 WNW 6 9 30.27 1025 N/A N/A
7:55 am 07:55 Cloudy 17 -8.6 12 -10.9 84 84 W 8 13 30.27 1025 N/A N/A
8:15 am 08:15 undefined 17 -8.6 13 -10.7 85 85 W 7 11 30.27 1025 N/A N/A
8:35 am 08:35 Sunny 17 -8.5 13 -10.8 84 84 W 7 11 30.24 1024 N/A N/A
8:55 am 08:55 undefined 16 -9.1 11 -11.5 83 83 W 8 13 30.30 1026 N/A N/A
9:15 am 09:15 Sunny 16 -8.8 11 -11.5 81 81 WNW 7 11 30.30 1026 N/A N/A
9:35 am 09:35 undefined 17 -8.6 12 -11.3 81 81 WNW 8 13 30.33 1027 N/A N/A
9:55 am 09:55 Sunny 17 -8.1 12 -11.1 79 79 WNW 10 17 30.30 1026 N/A N/A
10:15 am 10:15 Sunny 18 -7.7 13 -10.8 79 79 WNW 8 13 30.30 1026 N/A N/A
10:35 am 10:35 Sunny 19 -7.5 13 -10.6 79 79 WNW 5 7 30.30 1026 N/A N/A
10:55 am 10:55 Sunny 19 -7 14 -10.1 79 79 WNW 5 7 30.30 1026 N/A N/A
11:15 am 11:15 Sunny 20 -6.7 14 -10 78 78 WNW 5 7 30.30 1026 10 16 N/A
11:35 am 11:35 Sunny 21 -5.9 15 -9.4 77 77 WNW 7 11 30.30 1026 10 16 N/A
11:55 am 11:55 Sunny 23 -5.2 17 -8.6 77 77 NW 9 15 30.27 1025 10 16 N/A
12:15 pm 12:15 Sunny 23 -4.8 17 -8.6 75 75 WNW 8 13 30.27 1025 10 16 N/A
12:35 pm 12:35 Sunny 24 -4.5 16 -9 71 71 NW 9 15 30.27 1025 10 16 N/A
12:55 pm 12:55 Sunny 24 -4.5 16 -9.1 71 71 NW 10 17 30.27 1025 10 16 N/A
1:15 pm 13:15 Sunny 24 -4.2 15 -9.2 68 68 NW 10 17 30.27 1025 10 16 N/A
1:35 pm 13:35 Sunny 25 -4.1 15 -9.3 67 67 WNW 10 17 30.27 1025 10 16 N/A
1:55 pm 13:55 Sunny 25 -3.8 15 -9.4 65 65 WNW 10 17 30.27 1025 10 16 N/A
2:15 pm 14:15 Sunny 26 -3.6 15 -9.5 64 64 WNW 9 15 30.27 1025 10 16 N/A
2:35 pm 14:35 Sunny 26 -3.4 15 -9.5 63 63 WNW 9 15 30.27 1025 10 16 N/A
2:55 pm 14:55 Sunny 27 -3 15 -9.5 61 61 WNW 7 11 30.27 1025 10 16 N/A
3:15 pm 15:15 Sunny 27 -3 15 -9.4 62 62 WNW 7 11 30.27 1025 10 16 N/A
3:35 pm 15:35 Sunny 27 -2.8 16 -9.1 62 62 WNW 5 7 30.27 1025 10 16 N/A
3:55 pm 15:55 Sunny 27 -3 16 -8.9 64 64 WNW 3 6 30.27 1025 10 16 N/A
4:15 pm 16:15 Sunny 26 -3.3 16 -8.9 66 66 WNW 3 6 30.27 1025 10 16 N/A
4:35 pm 16:35 Sunny 26 -3.5 17 -8.6 68 68 WNW 3 6 30.27 1025 10 16 N/A
4:55 pm 16:55 Sunny 25 -3.9 16 -9 68 68 W 3 6 30.27 1025 10 16 N/A
5:15 pm 17:15 Sunny 24 -4.4 15 -9.2 70 70 WNW 5 7 30.30 1026 10 16 N/A
5:35 pm 17:35 Sunny 25 -4 16 -9 69 69 WNW 7 11 30.30 1026 10 16 N/A
5:55 pm 17:55 Sunny 21 -6.1 14 -10 74 74 W 6 9 30.33 1027 10 16 N/A
6:15 pm 18:15 Clear 20 -6.7 14 -10.1 77 77 W 5 7 30.33 1027 10 16 N/A
6:35 pm 18:35 Clear 21 -6.2 15 -9.6 77 77 W 5 7 30.33 1027 10 16 N/A
6:55 pm 18:55 Clear 19 -7 14 -10.1 79 79 N N/A 30.33 1027 10 16 N/A
7:15 pm 19:15 Clear 20 -6.5 15 -9.2 81 81 WSW 5 7 30.33 1027 10 16 N/A
7:35 pm 19:35 Clear 20 -6.6 16 -9 83 83 WSW 3 6 30.36 1028 10 16 N/A
7:55 pm 19:55 Clear 19 -7.4 15 -9.7 84 84 W 8 13 30.36 1028 10 16 N/A
8:15 pm 20:15 Clear 21 -6.1 16 -8.7 82 82 W 8 13 30.36 1028 10 16 N/A
8:35 pm 20:35 Clear 21 -6.2 16 -9 81 81 W 9 15 30.36 1028 10 16 N/A
8:55 pm 20:55 Clear 20 -6.8 15 -9.6 81 81 W 8 13 30.36 1028 10 16 N/A
9:15 pm 21:15 Clear 19 -7.3 14 -10 81 81 W 9 15 30.36 1028 10 16 N/A
9:35 pm 21:35 Clear 19 -7.5 13 -10.4 80 80 W 9 15 30.36 1028 10 16 N/A
9:55 pm 21:55 Clear 18 -7.6 13 -10.5 80 80 W 9 15 30.39 1029 10 16 N/A
10:15 pm 22:15 Clear 18 -7.7 13 -10.6 80 80 W 9 15 30.39 1029 10 16 N/A
10:35 pm 22:35 Clear 18 -7.9 12 -10.9 79 79 W 10 17 30.39 1029 10 16 N/A
10:55 pm 22:55 Clear 18 -8 12 -11 79 79 W 10 17 30.39 1029 10 16 N/A
11:15 pm 23:15 Clear 18 -8 12 -11.2 78 78 W 9 15 30.39 1029 10 16 N/A
11:35 pm 23:35 Clear 17 -8.3 11 -11.4 79 79 W 10 17 30.39 1029 10 16 N/A
11:55 pm 23:55 Clear 17 -8.5 11 -11.6 79 79 W 10 17 30.39 1029 10 16 N/A

Powered by AerisWeather